USA 159 (DSP 21)

Last updated on Sun Apr 12 2026 00:02:50 GMT+0000 (Coordinated Universal Time)

1 26880U 01033A 26101.51572448 -.00000236 00000+0 00000+0 0 9997 2 26880 12.7192 16.8824 0000272 98.5493 76.3823 0.99203707 32298

Satellite not in orbit

USA 159 (DSP 21)